Home / Sports / Cross Country / 2018 6A Girls Cross Country Championships

2018 6A Girls Cross Country Championships





Pirate Timing LLC – Contractor License HY-TEK’s Meet Manager
2018 MHSAA State 2A-4A-6A Cross Country Championships – 11/5/2018
Choctaw Trails, Jackson, MS
Last Completed Event

Event 1 Girls 5k Run CC 6A
==================================================================================
Name Year School Avg Mile Finals Points
==================================================================================
1 #936 Cartwright, Kately 12 Hernando Hig 6:14.4 19:23.15 1
2 #895 Streetman, Mallory 9 Gulfport Hig 6:32.5 20:19.32 2
3 #935 Cartwright, Jessic 8 Hernando Hig 6:35.2 20:27.56 3
4 #661 Walker, Madison 11 Biloxi High School 6:35.2 20:27.82 4
5 #758 Ferguson, Gracie 12 D’Iberville 6:37.1 20:33.68 5
6 #1216 Sellers, Shana 9 Pearl High School 6:38.7 20:38.49 6
7 #1186 Thompson, Addie 12 Oxford High 6:39.3 20:40.44 7
8 #1210 Davis, Daeja 10 Pearl High School 6:40.2 20:43.11 8
9 #1212 Massey, Grace 12 Pearl High School 6:41.4 20:47.12 9
10 #1167 Wheeler, Isabelle 10 Ocean Spring 6:46.7 21:03.57 10
11 #1229 Pitts, Olivia 12 Petal High School 6:47.8 21:06.71 11
12 #1162 Prochnow, Amelia 12 Ocean Spring 6:48.7 21:09.65 12
13 #1165 Smith, Sadie 12 Ocean Spring 6:51.0 21:16.81 13
14 #1492 Huntley, Hannah 12 Warren Central HS 6:56.1 21:32.74 14
15 #1402 Woodward, Mary Eli 12 Starkville H 6:58.8 21:41.18 15
16 #1383 Fritz, Erin 12 Southaven Hi 6:59.2 21:42.33 16
17 #939 Harmon, Sarah 10 Hernando Hig 7:00.5 21:46.37 17
18 #1213 Moore, Dominique 9 Pearl High School 7:02.1 21:51.33 18
19 #996 Benton, Abi Alden 7 Madison Central HS 7:02.2 21:51.69 19
20 #1444 Hudgins, Savannah 12 Tupelo High School 7:02.8 21:53.48 20
21 #718 Dean, Shelby 11 Clinton High School 7:02.9 21:53.69 21
22 #938 Haley, Emma Claire 9 Hernando Hig 7:04.0 21:57.22 22
23 #925 Henderson, Brianna 11 Harrison Central HS 7:04.5 21:58.79 23
24 #940 Jackson, Riley 7 Hernando Hig 7:05.1 22:00.69 24
25 #1215 Pinter, Hannah 12 Pearl High School 7:05.1 22:00.72 25
26 #1002 Wheatley, Anna 9 Madison Central HS 7:05.6 22:02.11 26
27 #1214 Pinter, Clare 12 Pearl High School 7:09.2 22:13.39 27
28 #1446 Powell, Kenzy 7 Tupelo High School 7:10.7 22:17.89 28
29 #674 Pitts, Madelyn 7 Brandon High School 7:12.7 22:24.28 29
30 #1449 Womack, Virginia 9 Tupelo High School 7:13.1 22:25.49 30
31 #1163 Prochnow, Penelope 10 Ocean Spring 7:13.3 22:25.98 31
32 #1447 Wade, Kaylee 8 Tupelo High School 7:13.3 22:26.21 32
33 #1227 Flores, Kylee 11 Petal High School 7:13.5 22:26.63 33
34 #1445 Love, Olivia 12 Tupelo High School 7:14.6 22:30.03 34
35 #1161 Furr, Isabella 11 Ocean Spring 7:16.0 22:34.46 35
36 #1490 Baldwin, Ileyanne 9 Warren Central HS 7:17.4 22:38.74 36
37 #934 Boyles, Loxley 7 Hernando Hig 7:19.1 22:44.08 37
38 #762 Verrett, Avery 9 D’Iberville 7:19.4 22:45.13 38
39 #1211 Evans, Kariah 10 Pearl High School 7:19.5 22:45.37 39
40 #1166 Trosclair, Kate 7 Ocean Spring 7:20.9 22:49.56 40
41 #1185 Rock, Katelyn 12 Oxford High 7:22.6 22:55.07 41
42 #1443 Chandler, Caroline 8 Tupelo High School 7:23.2 22:56.82 42
43 #859 Green, Lexi 10 George Count 7:23.6 22:58.05 43
44 #1164 Weems, Ainsley Ocean Spring 7:27.6 23:10.51 44
45 #657 Lewis, Allison 10 Biloxi High School 7:28.5 23:13.31 45
46 #655 Everidge, Amiya 9 Biloxi High School 7:28.8 23:14.19 46
47 #1027 Jennings, Tatiyana 11 Meridian Hig 7:29.9 23:17.75 47
48 #998 Dear, Davis 11 Madison Central HS 7:30.4 23:19.28 48
49 #1184 Johnson, Josi 8 Oxford High 7:31.9 23:23.79 49
50 #1150 Inman, Marah 9 Oak Grove 7:32.6 23:26.10 50
51 #1138 Sammons, Emma 9 Northwest Rankin HS 7:32.9 23:27.02 51
52 #1182 Cooper, Ciara 8 Oxford High 7:33.8 23:29.87 52
53 #764 Wingo, Taylor 10 D’Iberville 7:34.2 23:31.15 53
54 #670 Henry, Meagan 11 Brandon High School 7:34.5 23:32.00 54
55 #1153 Skinner, Kailey 12 Oak Grove 7:34.6 23:32.25 55
56 #1151 Jenkins, Leighton 11 Oak Grove 7:34.7 23:32.69 56
57 #1026 Grant, Princess 11 Meridian Hig 7:35.0 23:33.34 57
58 #658 Lewis, Jazmin 12 Biloxi High School 7:36.4 23:37.95 58
59 #719 Derrick, Hannah 12 Clinton High School 7:37.0 23:39.85 59
60 #721 Ford, Mary Claire 12 Clinton High School 7:38.1 23:43.17 60
61 #656 Fayard, Tallyn 7 Biloxi High School 7:38.7 23:45.01 61
62 #724 Mata-O’Dwyer, Evel 8 Clinton High School 7:40.8 23:51.59 62
63 #720 Dixon, Celie 8 Clinton High School 7:41.0 23:52.10 63
64 #1626 Ruiz, Leandra Pascagoula 7:41.3 23:53.04 64
65 #1183 Grafton, Addie 10 Oxford High 7:41.8 23:54.50 65
66 #675 Watts, Taylor 7 Brandon High School 7:44.2 24:01.99 66
67 #1187 Thompson, Ella 8 Oxford High 7:45.5 24:06.05 67
68 #671 Kirby, Katie 12 Brandon High School 7:45.6 24:06.37 68
69 #1134 Dehuff, Autumn 12 Northwest Rankin HS 7:46.4 24:08.97 69
70 #747 Eftink, Kathryn 11 Desoto Centr 7:46.8 24:10.27 70
71 #672 Levingston, Emma 7 Brandon High School 7:48.0 24:13.97 71
72 #861 Tanner, Dana 11 George Count 7:48.3 24:14.93 72
73 #1188 Wilson, Winborne 8 Oxford High 7:49.0 24:17.09 73
74 #1137 Mitchell, Avery 11 Northwest Rankin HS 7:49.2 24:17.62 74
75 #660 Pitre, Madeline 9 Biloxi High School 7:51.8 24:25.75 75
76 #1135 Ellis, Skyler 10 Northwest Rankin HS 7:53.1 24:29.76 76
77 #997 Dear, Ava 8 Madison Central HS 7:54.0 24:32.53 77
78 #1224 Dickinson, Katelyn 8 Petal High School 7:54.9 24:35.20 78
79 #1448 Womack, Anna Kate 9 Tupelo High School 7:58.2 24:45.43 79
80 #937 Edge, Riley 11 Hernando Hig 8:00.5 24:52.78 80
81 #1384 Justo, Thalia 11 Southaven Hi 8:03.0 25:00.35 81
82 #921 Barna, Haley 10 Harrison Central HS 8:03.5 25:02.16 82
83 #659 Napoleaon, Journey 9 Biloxi High School 8:03.7 25:02.72 83
84 #1399 Schimpf, Charley 7 Starkville H 8:04.8 25:06.20 84
85 #1386 Superbi, Lucrezia 11 Southaven Hi 8:05.2 25:07.18 85
86 #673 Paige, Jallian 7 Brandon High School 8:05.6 25:08.55 86
87 #722 Goolsby, Ella 8 Clinton High School 8:11.1 25:25.67 87
88 #1133 Borda, Daniella 10 Northwest Rankin HS 8:11.4 25:26.50 88
89 #723 Jones, Ashley 12 Clinton High School 8:14.7 25:36.78 89
90 #923 Callender, Emily 12 Harrison Central HS 8:16.7 25:43.17 90
91 #669 Bourne, Ella 10 Brandon High School 8:17.8 25:46.49 91
92 #1148 Cochara, Emma 10 Oak Grove 8:18.3 25:47.89 92
93 #1136 Lorence, Anna Grac 9 Northwest Rankin HS 8:19.1 25:50.59 93
94 #858 Goldman, Amber 12 George Count 8:20.0 25:53.31 94
95 #1152 Pendergrass, Cyara 11 Oak Grove 8:21.3 25:57.49 95
96 #1149 Granberry, Hermine 12 Oak Grove 8:21.6 25:58.29 96
97 #1382 Davis, Morgan 11 Southaven Hi 8:21.9 25:59.35 97
98 #1491 Ellison, Claire 8 Warren Central HS 8:22.9 26:02.35 98
99 #876 Turner, Myisha 9 Greenville HS 8:23.5 26:04.04 99
100 #856 Coates, Emaleigh 11 George Count 8:23.8 26:05.26 100
101 #924 Craig, Emelia 8 Harrison Central HS 8:24.8 26:08.24 101
102 #1494 Smith, Samantha 10 Warren Central HS 8:26.1 26:12.14 102
103 #893 Bishop, Jamie 9 Gulfport Hig 8:26.3 26:12.95 103
104 #1318 Bilbo, Keeleigh 9 Saint Martin 8:27.1 26:15.51
105 #1319 Carter, Cadence 9 Saint Martin 8:27.9 26:17.72
106 #908 Gipson, Breanna 10 Hancock High School 8:28.2 26:18.68 104
107 #763 Webb, Kayla 12 D’Iberville 8:28.5 26:19.74 105
108 #1029 Mitchell, Tariona 12 Meridian Hig 8:28.5 26:19.77 106
109 #748 Fundo, Mikayla 11 Desoto Centr 8:32.7 26:32.82 107
110 #1028 McPhail, Sonya 11 Meridian Hig 8:32.8 26:33.17 108
111 #1388 Warr, Lauren 8 Southaven Hi 8:33.6 26:35.48 109
112 #1147 Campbell, Hannah 10 Oak Grove 8:35.7 26:41.93 110
113 #1397 Ceriana, Elisa 11 Starkville H 8:36.7 26:45.12 111
114 #761 Knight, Carmen 9 D’Iberville 8:37.5 26:47.64 112
115 #1396 Strickland, Campbe 11 Starkville H 8:37.8 26:48.59 113
116 #1025 Batiste, Teknetra 10 Meridian Hig 8:41.4 26:59.92 114
117 #1496 Wilson, Keegan 5 Warren Central HS 8:42.2 27:02.34 115
118 #898 Wilson, Haleigh 9 Gulfport Hig 8:45.2 27:11.54 116
119 #874 Nealon, Nyesha 11 Greenville HS 8:47.1 27:17.56 117
120 #1000 Sawaya, Sarah 10 Madison Central HS 8:48.2 27:20.77 118
121 #971 Humphrey, Olivia 12 Jim Hill Hig 8:50.4 27:27.68 119
122 #872 Fung, Jaliyah 8 Greenville HS 8:53.4 27:37.07 120
123 #870 Adams, Courtney 8 Greenville HS 8:54.0 27:38.96 121
124 #999 Rhodes, Kelsey 9 Madison Central HS 8:55.0 27:42.05 122
125 #1627 Hernandez, Gissell Pascagoula 8:56.4 27:46.37 123
126 #976 Tucker, Emily 11 Jim Hill Hig 8:57.3 27:49.18 124
127 #910 Ladner, Annie 11 Hancock High School 9:01.2 28:01.23 125
128 #922 Bourgeois, Ivy 8 Harrison Central HS 9:07.4 28:20.69 126
129 #1139 Savell, Sophia 9 Northwest Rankin HS 9:08.5 28:23.97 127
130 #1401 Tquino, Agatha 7 Starkville H 9:09.2 28:26.18 128
131 #873 Nealon, Myesha 11 Greenville HS 9:10.3 28:29.44 129
132 #1024 Alford, Labresha 12 Meridian Hig 9:11.4 28:32.95 130
133 #913 Smith, Chelsea 10 Hancock High School 9:12.1 28:35.09 131
134 #746 Ballard, Giana 12 Desoto Centr 9:13.2 28:38.68 132
135 #1226 Dunkle, Christine 8 Petal High School 9:13.7 28:40.20 133
136 #907 Delger, Madison 8 Hancock High School 9:14.4 28:42.45 134
137 #1628 Ballas, Emma Pascagoula 9:15.4 28:45.38 135
138 #1630 Parnell, Avontiair Pascagoula 9:15.4 28:45.47 136
139 #1493 Lee, Hannah 9 Warren Central HS 9:16.4 28:48.68 137
140 #1495 Tennison, Hannah 8 Warren Central HS 9:16.6 28:49.06 138
141 #1398 Spradling, Lane 11 Starkville H 9:20.4 29:01.09 139
142 #909 LaCroix, Lauren 11 Hancock High School 9:26.8 29:20.81 140
143 #760 Hughes, Summar 11 D’Iberville 9:29.2 29:28.39 141
144 #759 Hall, Madison D’Iberville 9:30.4 29:32.03 142
145 #894 Palacio, Ceana 11 Gulfport Hig 9:34.9 29:46.08 143
146 #972 Marzittie, Jakayla 12 Jim Hill Hig 9:38.7 29:57.81 144
147 #1400 St. Pierre, Esther 12 Starkville H 9:42.4 30:09.20 145
148 #860 Strickland, Brookl 10 George Count 9:51.6 30:37.94 146
149 #750 San Juan, Janella 9 Desoto Centr 9:54.2 30:46.10 147
150 #1363 Camp, Chelsea 8 South Panola 9:56.5 30:52.96
151 #1365 Spriggs, Shelby 12 South Panola 9:56.7 30:53.74
152 #1030 Muhammad, Viskiyya 10 Meridian Hig 10:02.7 31:12.26 148
153 #926 Ladner, Candace 10 Harrison Central HS 10:11.0 31:38.07 149
154 #1001 Thomas, Annie 12 Madison Central HS 10:17.8 31:59.26 150
155 #875 Saulter, Skylar 8 Greenville HS 10:21.6 32:10.97 151
156 #1225 Dunkle, Caitlynn 8 Petal High School 10:33.5 32:47.93 152
157 #1228 Montague, Shelby 8 Petal High School 10:33.7 32:48.58 153
158 #862 Turnage, Lori 10 George Count 10:35.5 32:54.13 154
159 #896 Thames, Mary 11 Gulfport Hig 10:35.7 32:54.93 155
160 #1230 Powell, Riley 12 Petal High School 10:42.6 33:16.46 156
161 #1629 Houston, Kari Pascagoula 10:48.4 33:34.23 157
162 #871 Birkley, Dimon 12 Greenville HS 10:52.7 33:47.87 158
163 #973 Reed, JaKiera 10 Jim Hill Hig 11:01.5 34:15.17 159
164 #974 Spann, Keyahra 12 Jim Hill Hig 11:02.1 34:16.95 160
165 #951 Fondra, Kimmy 12 Horn Lake Hi 11:03.8 34:22.34
166 #749 Harpole, Meredith 10 Desoto Centr 11:04.4 34:24.06 161
167 #952 Jackson, Kathleen 11 Horn Lake Hi 11:05.1 34:26.19
168 #897 Vega, Maria Elena 9 Gulfport Hig 11:05.9 34:28.75 162
169 #857 Eubanks, Aleigha 9 George Count 11:13.3 34:51.84 163
170 #911 Miller, Sidney 11 Hancock High School 11:52.5 36:53.58 164

Team Scores
=================================================================================
Rank Team Total 1 2 3 4 5 *6 *7 *8 *9
=================================================================================
1 Pearl High School 66 6 8 9 18 25 27 39
Total Time: 1:46:00.78
Average: 21:12.16
2 Hernando High School 67 1 3 17 22 24 37 80
Total Time: 1:45:34.99
Average: 21:07.00
3 Ocean Springs High School 101 10 12 13 31 35 40 44
Total Time: 1:48:30.47
Average: 21:42.10
4 Tupelo High School 144 20 28 30 32 34 42 79
Total Time: 1:51:33.11
Average: 22:18.62
5 Oxford High School (MS) 214 7 41 49 52 65 67 73
Total Time: 1:54:23.67
Average: 22:52.74
6 Biloxi High School 214 4 45 46 58 61 75 83
Total Time: 1:54:18.28
Average: 22:51.66
7 Clinton High School 265 21 59 60 62 63 87 89
Total Time: 1:57:00.40
Average: 23:24.08
8 Brandon High School 288 29 54 66 68 71 86 91
Total Time: 1:58:18.61
Average: 23:39.73
9 Madison Central HS 288 19 26 48 77 118 122 150
Total Time: 1:59:06.38
Average: 23:49.28
10 D’Iberville High School 313 5 38 53 105 112 141 142
Total Time: 1:59:57.34
Average: 23:59.47
11 Oak Grove High School 348 50 55 56 92 95 96 110
Total Time: 2:02:16.42
Average: 24:27.29
12 Northwest Rankin HS 358 51 69 74 76 88 93 127
Total Time: 2:01:49.87
Average: 24:21.98
13 Warren Central HS 365 14 36 98 102 115 137 138
Total Time: 2:03:28.31
Average: 24:41.67
14 Southaven High School 388 16 81 85 97 109
Total Time: 2:04:24.69
Average: 24:52.94
15 Petal High School 407 11 33 78 133 152 153 156
Total Time: 2:09:36.67
Average: 25:55.34
16 Harrison Central HS 422 23 82 90 101 126 149
Total Time: 2:07:13.05
Average: 25:26.61
17 Meridian High School 432 47 57 106 108 114 130 148
Total Time: 2:06:43.95
Average: 25:20.79
18 Starkville High School 451 15 84 111 113 128 139 145
Total Time: 2:08:47.27
Average: 25:45.46
19 George County High School 455 43 72 94 100 146 154 163
Total Time: 2:09:49.49
Average: 25:57.90
20 Gulfport High School 519 2 103 116 143 155 162
Total Time: 2:16:24.82
Average: 27:16.97
21 Greenville HS 586 99 117 120 121 129 151 158
Total Time: 2:17:07.07
Average: 27:25.42
22 Pascagoula High School 615 64 123 135 136 157
Total Time: 2:22:44.49
Average: 28:32.90
23 Desoto Central High Schoo 617 70 107 132 147 161
Total Time: 2:24:31.93
Average: 28:54.39
24 Hancock High School 634 104 125 131 134 140 164
Total Time: 2:20:58.26
Average: 28:11.66
25 Jim Hill High School 706 119 124 144 159 160
Total Time: 2:33:46.79
Average: 30:45.36



Check Also

Games for the week of 11-18-18

  Date Sport Level Home Away Site Time 11/19/2018 Basketball JV BOONEVILLE ASHLAND Booneville HS …